TELSTAR 19V

Last updated on Wed Oct 29 2025 00:02:49 GMT+0000 (Coordinated Universal Time)

1 43562U 18059A 25300.31791083 -.00000269 00000+0 00000+0 0 9991 2 43562 0.0188 201.2686 0002642 327.2261 278.9080 1.00270893 26801
UTC large
Height (km)
Speed (km/s)
/
Latitude / Longitude
Inclination (degrees)
Orbital Period (minutes)
Azimuth
Elevation
Range (km)
Doppler Factor

Next 0 passes for location: London (51.5072 / 0.1276)

Sorry there are no passes over London.